Starlink 5836

operational
NORAD ID: 56386 Int'l Des: 2023-061 Owner: SPXS Country: US Constellation: starlink
LEOCIRCULAR

Starlink 5836について

説明を読み込み中...

リアルタイム位置

3D地球を読み込み中...

次回通過

高度履歴

Altitude vs Time

uPlot chart will show altitude changes over time

軌道要素

1 56386U 23061N 25351.16034368 .00000759 00000-0 71229-4 0 9993
2 56386 43.0044 285.6001 0001210 273.4326 86.6378 15.02541194144344
Epoch: Dec 17, 2025 • Age: 19 hours

現在のステータス

高度 569.4 km
速度 7.58 km/s
衛星直下点 -37.67°S, 158.4°E
打ち上げ日 May 4, 2023
運用期間 2.6 years
タイプ internet

技術仕様

分類 Payload
質量 305.00 kg
乾燥質量 290.00 kg
総質量 305.00 kg
長さ 0.20 m
直径 2.80 m
スパン 9.00 m
形状 Box + pan
製造者 SPXS
バスタイプ Starlink
フェーズステータス In Orbit
所有者/国 SPXS/US

大規模コンステレーション

Loading constellations...